Redmond, OR

6:35 PM PST on November 21, 2019 (GMT -0800)
Roberts Field Airport

Weather History for KRDM - September, 2019

Change the Weather History Date:

Sunday, September 15, 2019

  Actual Average Record
Temperature  
Mean Temperature 62 °F 58 °F  
Max Temperature 78 °F 77 °F 97 °F (1979)
Min Temperature 46 °F 38 °F 23 °F (1970)
Degree Days  
Heating Degree Days 3 8  
Month to date heating degree days 31 96  
Since 1 July heating degree days 78 245  
Cooling Degree Days 0 0  
Month to date cooling degree days 37 14  
Year to date cooling degree days 293 220  
Growing Degree Days 12 (Base 50)    
Moisture  
Dew Point 43 °F    
Average Humidity 56    
Maximum Humidity 89    
Minimum Humidity 23    
Precipitation  
Precipitation 0.09 in 0.01 in 0.48 in (1963)
Month to date precipitation 0.73 0.20  
Year to date precipitation 8.19 5.93  
Sea Level Pressure  
Sea Level Pressure 29.75 in    
Wind  
Wind Speed 9 mph (West)    
Max Wind Speed 25 mph    
Max Gust Speed 31 mph    
Visibility 10 miles    
Events Rain    
T = Trace of Precipitation, MM = Missing Value Source: NWS Daily Summary

Daily Weather History Graph

Daily Weather History Graph

Search for Another Location

Airport or City:

Astronomy

Sep. 15, 2019 Rise Set
Actual Time 6:43 AM PDT 7:15 PM PDT
Civil Twilight 6:14 AM PDT 7:44 PM PDT
Nautical Twilight 5:39 AM PDT 8:18 PM PDT
Astronomical Twilight 5:04 AM PDT 8:54 PM PDT
Moon 8:23 PM PDT (9/15) 7:59 AM PDT (9/15)
Length of Visible Light 13h 29m
Length of Day
12h 31m
Full, 98% of the Moon is Illuminated
Sep 15
Full
Sep 21
Last Quarter
Sep 28
New
Oct 5
First Quarter
Oct 13
Full

Hourly Weather History & Observations

Time (PDT) Temp. Dew Point Humidity Pressure Visibility Wind Dir Wind Speed Gust Speed Precip Events Conditions
12:56 AM 53.1 °F 45.0 °F 74% 29.80 in 10.0 mi Calm Calm - N/A   Clear
1:56 AM 53.1 °F 45.0 °F 74% 29.80 in 10.0 mi Calm Calm - N/A   Clear
2:56 AM 48.0 °F 42.1 °F 80% 29.78 in 10.0 mi Calm Calm - N/A   Clear
3:56 AM 50.0 °F 43.0 °F 77% 29.76 in 10.0 mi NNE 5.8 mph - N/A   Clear
4:56 AM 55.9 °F 46.9 °F 72% 29.75 in 10.0 mi SW 4.6 mph - N/A   Clear
5:56 AM 50.0 °F 45.0 °F 83% 29.77 in 10.0 mi SSW 3.5 mph - N/A   Clear
6:56 AM 48.9 °F 45.0 °F 86% 29.77 in 10.0 mi South 8.1 mph - N/A   Clear
7:56 AM 55.9 °F 46.0 °F 69% 29.76 in 10.0 mi SSE 5.8 mph - N/A   Clear
8:56 AM 66.0 °F 42.1 °F 42% 29.74 in 10.0 mi SSW 15.0 mph 20.7 mph N/A   Clear
9:56 AM 70.0 °F 30.0 °F 23% 29.73 in 10.0 mi SSW 16.1 mph 25.3 mph N/A   Clear
10:56 AM 73.9 °F 35.1 °F 24% 29.71 in 10.0 mi SW 16.1 mph 24.2 mph N/A   Clear
11:56 AM 75.0 °F 39.0 °F 27% 29.70 in 10.0 mi South 11.5 mph - N/A   Clear
12:56 PM 75.9 °F 37.9 °F 25% 29.69 in 10.0 mi South 9.2 mph 16.1 mph N/A   Clear
1:56 PM 75.9 °F 41.0 °F 29% 29.69 in 10.0 mi NNW 11.5 mph - N/A   Clear
2:56 PM 66.0 °F 46.0 °F 48% 29.72 in 10.0 mi NW 17.3 mph 27.6 mph N/A   Scattered Clouds
3:56 PM 64.0 °F 46.0 °F 52% 29.73 in 10.0 mi NW 20.7 mph 26.5 mph N/A   Overcast
4:56 PM 60.1 °F 48.0 °F 64% 29.74 in 10.0 mi NNW 15.0 mph - N/A   Overcast
5:56 PM 57.9 °F 45.0 °F 62% 29.77 in 10.0 mi North 12.7 mph - N/A   Overcast
6:56 PM 55.9 °F 45.0 °F 67% 29.77 in 10.0 mi NNW 9.2 mph - N/A   Partly Cloudy
7:56 PM 55.0 °F 44.1 °F 67% 29.77 in 10.0 mi NE 3.5 mph - N/A   Overcast
8:56 PM 54.0 °F 43.0 °F 66% 29.77 in 10.0 mi North 6.9 mph - N/A   Overcast
9:56 PM 53.1 °F 45.0 °F 74% 29.78 in 10.0 mi Calm Calm - 0.01 in Rain Light Rain
10:56 PM 51.1 °F 48.0 °F 89% 29.77 in 10.0 mi Calm Calm - 0.03 in Rain Light Rain
11:56 PM 51.1 °F 46.9 °F 86% 29.75 in 10.0 mi East 5.8 mph - 0.01 in   Overcast